Showing default

HULIANWANG DIGUI-16, 62976

Orbit data source: Space-Track

HULIANWANG DIGUI-16, 62976 is a payload satellite owned by Zhongguo Xingwang (CN) in LEO that was launched on Tue, 11 Feb 2025 UTC via a CHANG ZHENG 8A launch vehicle from the Wenchang Satellite Launch Center (WSC). Payload-class satellites include a variety of spacecraft equipped with specific instruments for various scientific and technological missions. These include communications satellites like Starlink; space stations such as the ISS; scientific satellites like the Hubble; Earth observation satellites from companies like Planet Labs, Umbra, and HawkEye 360; GPS; miniature CubeSats for education and research; and military/defense satellites.

Loading next visibility...
Identifier
62976, 2025-030F
Orbit
LEO
Last TLE update
13 hours ago
Origin
Manufacturer
CAST
Mission
Operational Civil Communications
Bus & Motor
HWHD, Unknown motor
Mass
~800 kg wet, ~800 kg dry
Launch date (UTC)
2025-02-11 (5 months ago)
Launch vehicle
CHANG ZHENG 8A
Launch site
Wenchang Satellite Launch Center (WSC)
Object type
Payload
Rocket body
Debris
Shape & HBR
Box + 2 Pan, 10 m
Radar Cross Section
5.935 m², Large (>1 m²)

Expand to show TLE details & history

TLE from 13 hours ago
0 HULIANWANG DIGUI-16
1 62976U 25030F   25181.88078767 -.00000103  00000-0  44991-4 0  9994
2 62976  50.0061  55.5704 0000447 123.3043 236.7872 13.29330977 19134
Epoch: 2025-06-30T21:08Z
TLE epoch observation values (Epoch: 2025-06-30T21:08:20.054Z)
Latitude
-0.00003°
Longitude
179.30258°
Altitude
1,149.979 km
Speed
7.279 km/s
True Right ascension
03h 42m 16s
True Declination
0° 00' 00"
Sunlit
Object was in daylight at epoch
Visualization orbit readout
Latitude
44.54403°
Longitude
-57.9025°
Altitude
1,153.288 km
Speed
7.282 km/s
Apparent Right ascension
10h 58m 51s
Apparent Declination
6° 48' 50"
Sunlit
Object is in daylight
Visualization observer readout
Local Sidereal Time
21:58:50
Azimuth
340° N
Elevation
-41.259°
Doppler factor
1
Orbital elements
Apogee altitude
1,150.329 km
Perigee altitude
1,149.656 km
Semi-major axis
7,528.129 km
Eccentricity
0.00004
Inclination
50.0061°
RAAN
55.5704°
Arg. of periapsis
123.3043°
True anomaly
Unknown
Mean anomaly
236.7872°
Eccentric anomaly
Unknown
Mean motion
3.32286 °/min
Orbital period
108.34 mins
BSTAR
0.000044991
Loading maneuver chart data...
Loading SW <> Apogee altitude chart data...
Loading historical data...
Loading historical data...
Loading historical data...
Loading historical data...
Loading historical data...
Loading historical data...
Loading historical data...

HULIANWANG DIGUI-16 Visibility forecast

Observer location: undefined°, undefined°

Span
Click to sort rows by Start time (UTC) header in descending order
Start Az.
Max El. time (UTC)
Max El. Az.
Max El.
End time (UTC)
End Az.
12 mins2025-07-01 17:06:24.028Z187.426° SSW2025-07-01 17:12:24.028Z126.221° SE28.024°2025-07-01 17:18:24.028Z70.765° E
13 mins2025-07-01 18:59:24.028Z242.493° WSW2025-07-01 19:05:24.028Z331.443° NNW44.371°2025-07-01 19:12:24.028Z54.853° ENE
12 mins2025-07-01 20:54:24.028Z286.827° WNW2025-07-01 21:00:24.028Z359.65° N32.718°2025-07-01 21:06:24.028Z57.674° ENE
12 mins2025-07-01 22:49:24.028Z308.292° NW2025-07-01 22:55:24.028Z22.454° NNE34.256°2025-07-01 23:01:24.028Z82.928° E
13 mins2025-07-02 00:43:24.028Z303.711° NW2025-07-02 00:49:24.028Z170.876° S44.98°2025-07-02 00:56:24.028Z127.051° SE
9 mins2025-07-02 02:38:24.028Z272.938° WNW2025-07-02 02:42:24.028Z231.53° WSW22.784°2025-07-02 02:47:24.028Z184.553° SSW
|